[[{"header":{"parameterUnit":"m.s-1","parameterCategory":1,"la1":30.2991,"la2":30.254,"lo1":-89.0895,"lo2":-89.0444,"dy":0.0017,"dx":0.0017,"nx":28,"ny":28,"refTime":"2024-07-08T21:00:00:Z","depth":0,"parameterNumber":2,"parameterNumberName":"U-component_of_WINDS"},"data":[0,0,0,0,0,0,0,0,0,0,0,0,0,0,0,0,0,0,0,0,0,0,0,0,0,0,0,0,0,0,0,0,0,0,0,0,0,0,0,0,0,0,0,0,0,0,0,0,0,0,0,0,0,0,0,0,0,0,2.5582,2.5583,0,2.5622,2.5622,2.5623,2.5564,2.5561,2.5559,2.5557,2.5595,2.5598,2.5601,0,0,0,0,0,0,0,0,0,0,0,0,0,2.5451,2.5454,2.5582,2.5583,2.5583,2.5622,2.5622,2.5623,2.5564,2.5561,2.5559,2.5557,2.5594,2.5597,2.5601,0,0,0,0,0,0,0,0,0,0,0,0,0,2.5501,2.5455,2.5582,2.5559,2.5557,2.5622,2.5622,2.5623,2.5564,2.5561,2.5558,2.5555,2.5593,2.5597,2.5601,2.569,0,0,2.5615,2.5617,0,0,0,0,0,0,0,0,2.5498,2.5506,2.5562,2.556,2.5558,2.5585,2.559,2.5646,2.5565,2.5561,2.5557,2.5554,2.5594,2.5598,2.5612,2.5692,2.5694,2.5615,2.5618,2.562,2.5621,0,0,0,0,0,0,0,2.5495,2.5504,2.5598,2.5562,2.5561,2.5544,2.5548,2.56,2.5594,2.5562,2.5557,2.5563,2.5592,2.5608,2.5612,2.5694,2.5615,2.5619,2.5622,2.5623,2.5847,2.585,0,0,0,0,0,0,2.5495,2.5501,2.5597,2.5599,2.552,2.5549,2.5553,2.5579,2.5594,2.5593,2.5566,2.556,2.5602,2.5607,2.5614,2.5717,2.562,2.5624,2.5626,2.5843,2.5847,2.5851,0,0,0,0,0,0,2.5492,2.5504,2.5595,2.5549,2.5559,2.5555,2.5584,2.5582,2.5597,2.5597,2.5595,2.5583,2.56,2.5607,2.5671,2.5717,2.5626,2.563,2.5839,2.5844,2.5849,2.5925,0,0,0,0,0,0,2.5489,2.5503,2.5538,2.555,2.5562,2.5654,2.5587,2.5585,2.5605,2.5599,2.5613,2.5612,2.5598,2.5665,2.5676,2.5722,2.5633,2.5835,2.5842,2.5847,2.5918,2.5932,2.5944,0,0,0,0,0,2.5484,2.5558,2.554,2.5552,2.5606,2.5656,2.5663,2.5646,2.5609,2.5643,2.5643,2.5611,2.5711,2.5672,2.5684,2.5732,2.5832,2.584,2.5847,2.5913,2.5929,2.5943,0,0,0,0,0,0,2.555,2.5559,2.554,2.562,2.5638,2.5646,2.5689,2.5665,2.5693,2.5685,2.5662,2.5666,2.5734,2.5739,2.5696,2.5817,2.5765,2.5775,2.5811,2.5827,2.5839,2.5836,2.5637,0,0,0,0,0,2.5575,2.5616,2.5621,2.5691,2.5701,2.5694,2.5715,2.5701,2.5718,2.5725,2.5729,2.5746,2.5781,2.5804,2.5837,2.5919,2.592,2.5958,2.597,2.5981,2.5989,2.6031,2.6047,2.5875,2.5875,2.5875,0,0,2.5624,2.5634,2.5662,2.5704,2.5717,2.5758,2.57,2.5748,2.5778,2.5732,2.5792,2.5796,2.5813,2.5886,2.5919,2.5893,2.6037,2.599,2.5998,2.6001,2.604,2.6056,2.6071,2.588,2.5879,2.5879,0,0,2.5736,2.5749,2.5807,2.5821,2.584,2.5835,2.5849,2.5861,2.5862,2.5922,2.5888,2.5923,2.5984,2.5997,2.6012,2.6128,2.6099,2.6139,2.6204,2.6245,2.6259,2.627,2.631,2.6324,2.6148,2.6148,2.6148,0,2.5795,2.5858,2.584,2.5889,2.5908,2.587,2.5927,2.5941,2.597,2.5983,2.5954,2.6029,2.6038,2.6112,2.614,2.6154,2.6168,2.6137,2.6258,2.627,2.6281,2.6318,2.6333,2.6152,2.6152,2.6151,2.6151,0,2.5928,2.5972,2.6017,2.6046,2.607,2.6124,2.6113,2.6139,2.6122,2.6119,2.618,2.619,2.6222,2.6239,2.6223,2.6311,2.6294,2.6262,2.6209,2.6302,2.6336,2.635,2.6159,2.6157,2.6156,2.6155,0,0,2.6082,2.61,2.6117,2.6129,2.6147,2.618,2.6231,2.6264,2.6286,2.6307,2.6347,2.64,2.637,2.6387,2.6372,2.6408,2.6496,2.6371,2.6371,2.6393,2.6591,2.6614,2.663,2.6478,2.6481,2.6483,2.6589,0,2.6191,2.628,2.6265,2.6351,2.639,2.6353,2.6397,2.6412,2.6411,2.6443,2.644,2.6477,2.6436,2.6446,2.648,2.6479,2.6536,2.6471,2.6514,2.6516,2.6509,2.6649,2.6673,2.6772,2.6602,2.6605,2.6606,0,2.6331,2.6357,2.6447,2.6458,2.6474,2.6514,2.6541,2.6573,2.6589,2.6585,2.6603,2.6582,2.663,2.6578,2.6644,2.66,2.6617,2.6619,2.6622,2.6624,2.6565,2.6652,2.6804,2.6818,2.6628,2.6626,2.6624,0,2.6431,2.6489,2.655,2.6562,2.6576,2.6605,2.6612,2.6625,2.6645,2.6669,2.6681,2.6711,2.6726,2.6749,2.6735,2.6698,2.6802,2.6749,2.6799,2.6799,2.6821,2.6819,2.6975,2.6835,2.6835,2.6835,2.6834,0,2.6554,2.6609,2.6595,2.6632,2.6693,2.6675,2.6735,2.6737,2.6749,2.6784,2.6755,2.6789,2.6769,2.6801,2.6791,2.6845,2.6853,2.685,2.6846,2.6852,2.6852,2.6861,2.6853,2.6839,2.6838,2.6837,2.6836,0,2.6675,2.6668,2.6731,2.674,2.6744,2.6788,2.6794,2.6828,2.6824,2.687,2.6879,2.6873,2.6909,2.6898,2.6937,2.6929,2.6998,2.6987,2.6993,2.6989,2.7039,2.7033,2.7204,2.7225,2.7074,2.7075,2.7076,0,2.6753,2.6795,2.6808,2.683,2.684,2.6876,2.6897,2.688,2.6902,2.6923,2.6954,2.6987,2.7013,2.7072,2.707,2.7099,2.7086,2.7144,2.709,2.7094,2.7084,2.7081,2.7084,2.7154,2.7156,2.7157,2.7158,0,2.6891,2.6885,2.6916,2.6946,2.6971,2.6993,2.7013,2.7032,2.7017,2.7043,2.7079,2.71,2.7139,2.7172,2.7198,2.7204,2.7178,2.7176,2.7188,2.7193,2.7194,2.7192,2.702,2.7171,2.717,2.7169,2.7168,2.7168,2.6991,2.7026,2.7041,2.7076,2.7089,2.7107,2.7139,2.7139,2.717,2.7201,2.7189,2.7231,2.7244,2.7277,2.7286,2.7317,2.7295,2.7314,2.7318,2.7322,2.7328,2.7191,2.7322,2.7322,2.7322,2.7321,2.7321,0,2.7125,2.7133,2.7166,2.7194,2.7221,2.7196,2.7216,2.724,2.7277,2.7292,2.7318,2.7359,2.7391,2.7392,2.7421,2.7446,2.7434,2.7453,2.745,2.7452,2.7347,2.7333,2.7462,2.7462,2.7462,2.7462,2.7462,2.7462,2.7198,2.7255,2.7251,2.7314,2.732,2.7362,2.7375,2.7391,2.7403,2.7451,2.7477,2.7478,2.7487,2.7516,2.7543,2.7542,2.7553,2.7577,2.7571,2.7473,2.7459,2.7446,2.7432,2.758,2.758,2.7673,2.7674,2.7674]},{"header":{"parameterUnit":"m.s-1","parameterCategory":1,"la1":30.2991,"la2":30.254,"lo1":-89.0895,"lo2":-89.0444,"dy":0.0017,"dx":0.0017,"nx":28,"ny":28,"refTime":"2024-07-08T21:00:00:Z","depth":0,"parameterNumber":3,"parameterNumberName":"V-component_of_WINDS"},"data":[0,0,0,0,0,0,0,0,0,0,0,0,0,0,0,0,0,0,0,0,0,0,0,0,0,0,0,0,0,0,0,0,0,0,0,0,0,0,0,0,0,0,0,0,0,0,0,0,0,0,0,0,0,0,0,0,0,0,7.2325,7.2326,0,7.2504,7.2506,7.2508,7.2449,7.2445,7.2441,7.2437,7.2618,7.2626,7.2635,0,0,0,0,0,0,0,0,0,0,0,0,0,7.1926,7.1934,7.2324,7.2327,7.2329,7.2503,7.2506,7.2508,7.2449,7.2445,7.244,7.2436,7.2615,7.2625,7.2635,0,0,0,0,0,0,0,0,0,0,0,0,0,7.2101,7.1936,7.2324,7.2321,7.2322,7.2503,7.2506,7.2509,7.245,7.2445,7.2439,7.2433,7.2612,7.2624,7.2637,7.2831,0,0,7.2675,7.2681,0,0,0,0,0,0,0,0,7.2092,7.2116,7.2319,7.2321,7.2323,7.2448,7.2431,7.2617,7.2452,7.2402,7.2437,7.2431,7.2566,7.2582,7.2628,7.2839,7.2847,7.2676,7.2684,7.2689,7.2693,0,0,0,0,0,0,0,7.208,7.2108,7.2395,7.2322,7.2325,7.2308,7.2327,7.2466,7.2514,7.2406,7.2402,7.2424,7.2566,7.2616,7.2632,7.2849,7.2676,7.2687,7.2695,7.27,7.3224,7.323,0,0,0,0,0,0,7.2067,7.2098,7.2389,7.2401,7.2191,7.232,7.2341,7.2414,7.2512,7.2522,7.2429,7.2421,7.2598,7.2617,7.2638,7.2869,7.2689,7.2701,7.2708,7.3217,7.3225,7.3232,0,0,0,0,0,0,7.2058,7.2093,7.2382,7.2249,7.2284,7.2333,7.2415,7.242,7.247,7.253,7.2538,7.2472,7.2594,7.262,7.2782,7.2874,7.2707,7.2718,7.321,7.322,7.3228,7.3334,0,0,0,0,0,0,7.2047,7.2091,7.2166,7.2251,7.2291,7.2526,7.2421,7.2428,7.2493,7.2484,7.2572,7.2581,7.2591,7.2764,7.2795,7.2889,7.2728,7.3202,7.3214,7.3225,7.3322,7.3346,7.3366,0,0,0,0,0,7.2033,7.2189,7.2171,7.2206,7.2387,7.2531,7.2554,7.2563,7.2501,7.2576,7.2613,7.2578,7.2859,7.2781,7.2815,7.2914,7.3196,7.3211,7.3224,7.3312,7.3341,7.3365,0,0,0,0,0,0,7.2114,7.22,7.2181,7.2369,7.2443,7.2521,7.2616,7.2594,7.2687,7.2675,7.2681,7.2701,7.2867,7.2907,7.2818,7.3105,7.3018,7.304,7.3073,7.3101,7.3122,7.3108,7.2739,0,0,0,0,0,7.2154,7.2265,7.2334,7.2493,7.2531,7.2567,7.263,7.2631,7.2708,7.2738,7.2788,7.2863,7.2967,7.3036,7.3136,7.3327,7.3344,7.3412,7.3434,7.3451,7.347,7.357,7.3601,7.3279,7.3279,7.3278,0,0,7.2238,7.2298,7.2368,7.2511,7.2568,7.2681,7.2594,7.2718,7.2801,7.2757,7.2912,7.2951,7.3035,7.3211,7.3292,7.325,7.3562,7.347,7.3483,7.3492,7.3588,7.3619,7.3646,7.3288,7.3287,7.3285,0,0,7.2447,7.2505,7.2642,7.2701,7.2789,7.2812,7.2845,7.2926,7.295,7.3106,7.3074,7.3172,7.3353,7.3413,7.3467,7.3695,7.3665,7.3727,7.3841,7.3939,7.3964,7.3987,7.4065,7.4094,7.3746,7.3746,7.3746,0,7.2539,7.2709,7.2716,7.2842,7.2904,7.2869,7.3006,7.3063,7.3179,7.3222,7.3173,7.3398,7.3452,7.364,7.3695,7.3741,7.3777,7.3717,7.396,7.3983,7.4004,7.4079,7.4109,7.3753,7.3752,7.3751,7.3751,0,7.2816,7.2934,7.3035,7.3147,7.3221,7.3352,7.3376,7.345,7.3443,7.3469,7.3627,7.369,7.3801,7.3845,7.3841,7.4033,7.4003,7.3958,7.387,7.4041,7.4112,7.4141,7.3763,7.376,7.3758,7.3757,0,0,7.3084,7.3196,7.3233,7.3282,7.3375,7.3465,7.3593,7.3701,7.3762,7.3843,7.3948,7.4101,7.4058,7.412,7.412,7.4207,7.4379,7.415,7.4152,7.4189,7.4591,7.4624,7.4658,7.436,7.4366,7.437,7.4584,0,7.3299,7.3525,7.3533,7.3738,7.3845,7.3812,7.3923,7.3991,7.4018,7.4112,7.4142,7.4249,7.4186,7.4222,7.4306,7.4341,7.446,7.4326,7.4456,7.4461,7.4436,7.4695,7.4731,7.4929,7.4612,7.4616,7.462,0,7.3581,7.3669,7.3885,7.3959,7.4005,7.4104,7.4202,7.4293,7.4367,7.4381,7.4448,7.4436,7.4564,7.4472,7.4647,7.4555,7.4609,7.4633,7.4641,7.4653,7.455,7.4712,7.4993,7.5022,7.4664,7.466,7.4657,0,7.3751,7.3924,7.4074,7.4118,7.4209,7.4279,7.432,7.4389,7.4453,7.4538,7.4578,7.4677,7.4731,7.4807,7.482,7.4753,7.4994,7.4905,7.5007,7.5007,7.5059,7.5056,7.5351,7.5097,7.5096,7.5096,7.5095,0,7.3989,7.4122,7.4152,7.4244,7.4391,7.4398,7.4542,7.4578,7.4639,7.4736,7.4713,7.4804,7.4817,7.4911,7.4922,7.5063,7.5088,7.5101,7.5102,7.5102,7.51,7.5137,7.5123,7.5103,7.5102,7.51,7.5099,0,7.4204,7.423,7.4391,7.4464,7.4485,7.459,7.465,7.4738,7.4762,7.4885,7.4914,7.4952,7.506,7.5081,7.521,7.5217,7.5385,7.5373,7.536,7.5358,7.5458,7.5448,7.5787,7.5831,7.5549,7.5551,7.5554,0,7.4355,7.4456,7.4538,7.4602,7.4646,7.4749,7.4813,7.4823,7.489,7.4981,7.5057,7.5163,7.5248,7.5423,7.5461,7.5558,7.5547,7.5659,7.5562,7.5558,7.5547,7.554,7.5549,7.5678,7.5681,7.5683,7.5685,0,7.4618,7.4624,7.4718,7.4816,7.4893,7.497,7.5043,7.5096,7.5115,7.5191,7.5302,7.5368,7.5499,7.5603,7.57,7.574,7.5715,7.5716,7.5744,7.5745,7.5732,7.5738,7.5409,7.5708,7.5706,7.5704,7.5703,7.5702,7.4804,7.4891,7.4962,7.5066,7.5121,7.519,7.5274,7.5308,7.5401,7.5508,7.5508,7.5628,7.5697,7.5824,7.587,7.5963,7.5927,7.5969,7.5979,7.5989,7.5997,7.5719,7.598,7.598,7.5979,7.5979,7.5978,0,7.5063,7.5107,7.5203,7.5305,7.5386,7.5356,7.5435,7.5504,7.5611,7.5677,7.5761,7.5887,7.5987,7.6032,7.6131,7.6196,7.6187,7.6222,7.6216,7.6225,7.6025,7.5989,7.6227,7.6227,7.6227,7.6227,7.6227,7.6227,7.5208,7.5353,7.5367,7.5538,7.558,7.5699,7.5745,7.5807,7.586,7.6001,7.6085,7.6113,7.617,7.6272,7.6362,7.6372,7.6409,7.6448,7.6453,7.6265,7.624,7.6216,7.6182,7.6456,7.6457,7.6645,7.6647,7.6648]}]]